Weather History for Milford, UT

Change the Weather History Date:

Friday, September 13, 2013

  Actual Average Record
Temperature  
Mean Temperature 64 °F -  
Max Temperature 73 °F 79 °F 93 °F (2000)
Min Temperature 55 °F 45 °F 33 °F (2005)
Degree Days  
Heating Degree Days 1    
Growing Degree Days 14 (Base 50)    
Moisture  
Dew Point 53 °F    
Average Humidity 73    
Maximum Humidity 90    
Minimum Humidity 46    
Precipitation  
Precipitation 0.02 in - - ()
Sea Level Pressure  
Sea Level Pressure 29.86 in    
Wind  
Wind Speed 6 mph (SSW)    
Max Wind Speed 10 mph    
Max Gust Speed -    
Visibility 10 miles    
Events Rain    
Averages and records for this station are not official NWS values.
T = Trace of Precipitation, MM = Missing Value Source: NWS Daily Summary

Daily Weather History Graph

Daily Weather History Graph

Search for Another Location

Airport:

Trip Planner

Search our weather history database for the weather conditions in past years. The results will help you decide how hot, cold, wet, or windy it might be!

Date:

Astronomy

Sep. 13, 2013 Rise Set
Actual Time 7:12 AM MDT 7:42 PM MDT
Civil Twilight 6:45 AM MDT 8:09 PM MDT
Nautical Twilight 6:14 AM MDT 8:40 PM MDT
Astronomical Twilight 5:42 AM MDT 9:12 PM MDT
Moon 3:32 PM MDT (9/13) 12:48 AM MDT (9/13)
Length of Visible Light 13h 23m
Length of Day
12h 30m
Waxing Gibbous, 62% of the Moon is Illuminated
Sep 13
Waxing Gibbous
Sep 19
Full
Sep 26
Last Quarter
Oct 4
New
Oct 11
First Quarter

Hourly Weather History & Observations

Time (MDT) Temp. Dew Point Humidity Pressure Visibility Wind Dir Wind Speed Gust Speed Precip Events Conditions
12:52 AM 59.0 °F 54.0 °F 83% 29.93 in 10.0 mi SSE 5.8 mph - N/A   Overcast
1:52 AM 59.0 °F 55.0 °F 87% 29.92 in 10.0 mi SW 8.1 mph - N/A   Overcast
2:52 AM 57.9 °F 53.1 °F 84% 29.91 in 10.0 mi SW 6.9 mph - N/A   Overcast
3:52 AM 57.0 °F 52.0 °F 83% 29.90 in 10.0 mi Calm Calm - N/A   Scattered Clouds
4:52 AM 55.9 °F 52.0 °F 87% 29.90 in 10.0 mi South 10.4 mph - N/A   Overcast
5:52 AM 55.9 °F 52.0 °F 87% 29.88 in 10.0 mi South 4.6 mph - N/A   Overcast
6:52 AM 55.0 °F 52.0 °F 89% 29.89 in 10.0 mi SSE 4.6 mph - N/A   Overcast
7:52 AM 55.9 °F 52.0 °F 87% 29.90 in 10.0 mi South 3.5 mph - N/A   Overcast
8:52 AM 57.0 °F 53.1 °F 87% 29.91 in 10.0 mi SSE 6.9 mph - N/A   Overcast
9:52 AM 63.0 °F 52.0 °F 67% 29.90 in 10.0 mi SSW 8.1 mph - N/A   Overcast
10:52 AM 66.0 °F 52.0 °F 60% 29.90 in 10.0 mi South 8.1 mph - N/A   Overcast
11:52 AM 68.0 °F 53.1 °F 59% 29.87 in 10.0 mi SSE 8.1 mph - N/A   Overcast
12:52 PM 72.0 °F 50.0 °F 46% 29.83 in 10.0 mi South 8.1 mph - N/A   Overcast
1:52 PM 73.0 °F 53.1 °F 49% 29.81 in 10.0 mi Variable 6.9 mph - N/A   Overcast
2:52 PM 68.0 °F 54.0 °F 61% 29.81 in 10.0 mi NW 9.2 mph - 0.00 in Rain Light Rain
3:52 PM 71.1 °F 51.1 °F 49% 29.79 in 10.0 mi North 5.8 mph - 0.00 in   Overcast
4:52 PM 72.0 °F 50.0 °F 46% 29.78 in 10.0 mi NW 9.2 mph - N/A   Overcast
5:52 PM 64.9 °F 55.9 °F 73% 29.80 in 10.0 mi NNE 6.9 mph - 0.02 in Rain Light Rain
6:52 PM 66.9 °F 54.0 °F 63% 29.81 in 10.0 mi North 4.6 mph - 0.00 in   Clear
7:52 PM 64.0 °F 54.0 °F 70% 29.82 in 10.0 mi North 4.6 mph - N/A   Mostly Cloudy
8:52 PM 62.1 °F 55.9 °F 80% 29.84 in 10.0 mi Calm Calm - N/A   Scattered Clouds
9:52 PM 61.0 °F 55.0 °F 81% 29.84 in 10.0 mi West 6.9 mph - N/A   Mostly Cloudy
10:52 PM 60.1 °F 55.9 °F 86% 29.83 in 10.0 mi Calm Calm - N/A   Mostly Cloudy
11:52 PM 59.0 °F 55.9 °F 90% 29.83 in 10.0 mi Calm Calm - N/A   Overcast